AirNav   BOSE ProFlight Aviation Headset
 
 1655 users online  

2R9 Karnes County Airport
Kenedy, Texas, USA

GOING TO KENEDY?


FAA INFORMATION EFFECTIVE 19 JULY 2018

Location

FAA Identifier: 2R9
Lat/Long: 28-49-29.9485N / 097-51-56.0460W
28-49.499142N / 097-51.934100W
28.8249857 / -97.8655683
(estimated)
Elevation: 288.7 ft. / 88.0 m (surveyed)
Variation: 05E (2010)
From city: 1 mile NW of KENEDY, TX
Time zone: UTC -5 (UTC -6 during Standard Time)
Zip code: 78119

Airport Operations

Airport use: Open to the public
Control tower: no
ARTCC: HOUSTON CENTER
FSS: SAN ANGELO FLIGHT SERVICE STATION
NOTAMs facility: SJT (NOTAM-D service available)
Attendance: MON-FRI DAYLIGHT HOURS
Wind indicator: lighted
Segmented circle: yes
Lights: MIRL RY 16/34 & TWY LGTS PRESET LOW INTST; TO INCR INTST ACTVT - CTAF.
Beacon: white-green (lighted land airport)
Operates sunset to sunrise.

Airport Communications

CTAF/UNICOM: 123.0
WX ASOS at NGT (18 nm SE): 353.675
  • APCH/DEP SERVICE PROVIDED BY HOUSTON ARTCC ON FREQS 134.6/322.5 (THREE RIVERS RCAG).

Nearby radio navigation aids

VOR radial/distance  VOR name  Freq  Var
THXr030/24.4THREE RIVERS VORTAC111.4008E
SSFr122/(39.9)STINSON VOR108.4009E

Airport Services

Fuel available: 100LL JET-A
Parking: tiedowns
Airframe service: MAJOR
Powerplant service: MAJOR

Runway Information

Runway 16/34

Dimensions: 3218 x 60 ft. / 981 x 18 m
Surface: asphalt, in fair condition
Weight bearing capacity: 
Single wheel: 11.0
Runway edge lights: medium intensity
Runway edge markings: MARKINGS FADED
RUNWAY 16  RUNWAY 34
Latitude: 28-49.760033N28-49.238250N
Longitude: 097-51.990067W097-51.878133W
Elevation: 288.7 ft.272.2 ft.
Gradient: 0.6%0.5% UP
Traffic pattern: rightleft
Runway heading: 164 magnetic, 169 true344 magnetic, 349 true
Markings: basic, in poor conditionbasic, in poor condition
Touchdown point: yes, no lightsyes, no lights
Obstructions: 34 ft. pole, 628 ft. from runway, 306 ft. left of centerline, 12:1 slope to clear
+6 FT DIRT ROAD 144 FT FM THLD.
31 ft. trees, 200 ft. from runway, 195 ft. left of centerline
+35 FT TREES 0-200 FT FM THLD AT 177-200 FT L, 5 FT FENCE 0-200 FT FM THLD & 105 FT-200 FT LEFT.

Airport Ownership and Management from official FAA records

Ownership: Publicly-owned
Owner: CITY OF KENEDY
303 W.MAIN
KENEDY, TX 78119
Phone 830-583-2230
Manager: RON HYDE
P.O. BOX 569
KENEDY, TX 78119
Phone (830) 583-5930

Airport Operational Statistics

Aircraft based on the field: 12
Single engine airplanes: 10
Multi engine airplanes: 2
    
Aircraft operations: avg 57/week *
67% local general aviation
33% transient general aviation
* for 12-month period ending 26 January 2017

Additional Remarks

DEER ON & INVOF ARPT (SEASONAL).
ACFT AIRFRAME & POWER PLANT REPAIRS ON CALL 830-299-2295.
SOUTH TWY CLSD.

Instrument Procedures

NOTE: All procedures below are presented as PDF files. If you need a reader for these files, you should download the free Adobe Reader.

NOT FOR NAVIGATION. Please procure official charts for flight.
FAA instrument procedures published for use from 19 July 2018 at 0901Z to 16 August 2018 at 0900Z.

 
IAPs - Instrument Approach Procedures
RNAV (GPS) RWY 16 **CHANGED**   download (167KB)
RNAV (GPS) RWY 34 **CHANGED**   download (161KB)
VOR/DME-A **CHANGED**   download (141KB)
NOTE: Special Take-Off Minimums/Departure Procedures apply   download (154KB)

Other nearby airports with instrument procedures:

KNGT - Goliad Naval Outlying Field (18 nm SE)
KBEA - Beeville Municipal Airport (28 nm S)
TX2 - Chase Field Industrial Airport (30 nm S)
8T6 - Live Oak County Airport (31 nm SW)
KPEZ - Pleasanton Municipal Airport (35 nm W)
 
Loc | Ops | Rwys | IFR | FBO | Links
Com | Nav | Svcs | Stats | Notes


 
Area around 2R9 (Karnes County Airport)
 
Road maps at: MapQuest Bing Google
 
Aerial photo
WARNING: Photo may not be current or correct
Aerial photo of 2R9 (Karnes County Airport)
Photo by Glenn Maleske
Taken late January 2010

Do you have a better or more recent aerial photo of Karnes County Airport that you would like to share? If so, please send us your photo.

 
Sectional chart

 
Airport distance calculator
Flying to Karnes County Airport? Find the distance to fly.

From to 2R9

Sunrise and sunset
Times for 19-Jul-2018
 Local
(UTC-5)
 Zulu
(UTC)
Morning civil twilight06:2011:20
Sunrise06:4611:46
Sunset20:2901:29
Evening civil twilight20:5501:55

Current date and time
Zulu (UTC)  19-Jul-2018 15:47:39
Local (UTC-5)  19-Jul-2018 10:47:39
 
METAR
KBEA 
28nm S 
191535Z AUTO 20014G18KT 10SM SCT019 29/24 A2996 RMK AO2 T02910238
KPEZ 
35nm W 
191535Z AUTO 15004KT 10SM CLR 29/22 A2997 RMK AO2 T02940220
KSSF 
44nm NW 
191541Z VRB03KT 10SM SCT018 29/24 A2996 RMK AO2 T02940244 $
KRND 
47nm NW 
191528Z 20009KT 10SM BKN015 28/23 A2998 RMK AO2A BKN V OVC CIG 014 RWY15R SLP143
KT20 
47nm NE 
191535Z AUTO 22010KT 10SM SCT021 30/23 A2997 RMK AO2 T03010230
KVCT 
49nm E 
191526Z 21010KT 10SM SCT020 29/23 A2997 RMK AO2 T02940233
KSKF 
49nm NW 
191513Z 19005KT 10SM SCT015 28/22 A2997 RMK SCT V BKN SLP140 $
TAF
KSSF 
44nm NW 
191317Z 1913/2012 VRB03KT P6SM SCT012 SCT250 TEMPO 1913/1915 BKN012 FM191600 16009KT P6SM FEW250
KRND 
47nm NW 
191350Z 1913/2015 19006KT 9999 BKN008 QNH2992INS TEMPO 1913/1915 BKN010 BECMG 1915/1916 19009KT 9999 SKC QNH2989INS BECMG 1923/1924 16012KT 9999 SKC QNH2985INS BECMG 2003/2004 17006KT 9999 SKC QNH2990INS TX38/1921Z TN24/1913Z
KVCT 
49nm E 
191247Z 1913/2012 19003KT P6SM SCT015 SCT250 TEMPO 1913/1914 4SM BR BKN016 FM191600 21012G20KT P6SM SKC FM200100 17008KT P6SM SKC
KSKF 
49nm NW 
191000Z 1910/2016 17006KT 9999 SCT010 QNH2991INS TEMPO 1910/1914 BKN010 BECMG 1913/1914 18009KT 9999 SKC QNH2989INS BECMG 1923/1924 16012KT 9999 SKC QNH2985INS BECMG 2005/2006 17006KT 9999 SKC QNH2990INS TX38/1921Z TN24/1911Z
NOTAMs
Click for the latest NOTAMs
NOTAMs are issued by the DoD/FAA and will open in a separate window not controlled by AirNav.

 

 
 

FBO, Fuel Providers, and Aircraft Ground Support

  
 Business Name 
 
 Contact 
 
 Services / Description 
 
Fuel Prices
 
Comments
  
Stetson Aviation, Inc. 830-583-9884
830-583-5930
[web site]
[email]
Aviation fuel, Aircraft ground handling, Aircraft parking (ramp or tiedown), Hangar leasing / sales, GPU / Power cart, Passenger terminal and lounge, ...

More info about Stetson Aviation, Inc.
Avfuel
100LL Jet A
SS $4.46 $3.49 
 Updated 06-Jun-2018
 
   2 read write
SS=Self service
Update Fuel Prices
 

Where to Eat: Catering, Restaurants, Food shops

  
 Business Name 
 
 Contact 
 
 Services / Description 
 
Distance
 
Comments
  
Barth's Restaurant 830-583-2468
no information available

If you are affiliated with Barth's Restaurant and would like to show here your services, contact info, web link, logo, and more, click here
0.2 miles  
   write
 

Would you like to see your business listed on this page?

 If your business provides an interesting product or service to pilots, flight crews, aircraft, or users of the Karnes County Airport, you should consider listing it here.  To start the listing process, click on the button below
 
Add a business
 

Other Pages about Karnes County Airport

Update a link
 
Copyright © AirNav, LLC. All rights reserved. Privacy Policy  Contact